Tracking 30102 objects as of 13-Dec-2024
HD Live streaming from Space Station
objects crossing your sky now

STARLINK-31259

Track STARLINK-31259 now!
10-day predictions
STARLINK-31259 is classified as:


NORAD ID: 59076
Int'l Code: 2024-041C
Perigee: 494.3 km
Apogee: 496.0 km
Inclination: 43.0 °
Period: 94.4 minutes
Semi major axis: 6866 km
RCS: Unknown
Launch date: February 29, 2024
Source: United States (US)
Launch site: AIR FORCE EASTERN TEST RANGE (AFETR)
Your satellite tracking list
Your tracking list is empty




NASA's NSSDC Master Catalog

Two Line Element Set (TLE):
1 59076U 24041C   24347.07141414 -.00008089  00000-0 -29965-3 0  9991
2 59076  43.0019 344.7861 0001206 229.6090 130.4656 15.25917331 45085
Source of the keplerian elements: AFSPC